Location: Marstown
(39.5056°N, 77.0820°W)
Time: 12:35:56
(UTC-05:00)

Tiangong 1 - Visible Passes

Search period start: 17 November 2017 00:00
Search period end: 27 November 2017 00:00
Orbit: 286 x 310 km, 42.8° (Epoch: 17 November)

Date Brightness Start Highest point End Pass type
(mag) Time Alt. Az. Time Alt. Az. Time Alt. Az.
24 Nov 2.7 17:42:12 10° S 17:43:57 16° SSE 17:45:04 13° ESE visible
25 Nov 1.6 17:47:50 10° SW 17:50:12 32° SSE 17:51:15 22° ESE visible
26 Nov 0.6 17:53:49 10° WSW 17:56:22 67° SSE 17:57:16 34° E visible
